[[{"header":{"parameterUnit":"m.s-1","parameterCategory":1,"la1":30.2991,"la2":30.254,"lo1":-89.0895,"lo2":-89.0444,"dy":0.0017,"dx":0.0017,"nx":28,"ny":28,"refTime":"2024-07-24T21:00:00:Z","depth":0,"parameterNumber":2,"parameterNumberName":"U-component_of_WINDS"},"data":[0,0,0,0,0,0,0,0,0,0,0,0,0,0,0,0,0,0,0,0,0,0,0,0,0,0,0,0,0,0,0,0,0,0,0,0,0,0,0,0,0,0,0,0,0,0,0,0,0,0,0,0,0,0,0,0,0,0,1.9966,1.9968,0,2.0116,2.0117,2.0119,2.0123,2.0121,2.012,2.0118,2.0268,2.0274,2.0279,0,0,0,0,0,0,0,0,0,0,0,0,0,1.9681,1.9686,1.9966,1.9968,1.997,2.0115,2.0117,2.012,2.0124,2.0121,2.0119,2.0117,2.0266,2.0273,2.028,0,0,0,0,0,0,0,0,0,0,0,0,0,1.9815,1.9688,1.9966,1.999,1.9993,2.0115,2.0118,2.012,2.0124,2.0121,2.0119,2.0116,2.0264,2.0272,2.0281,2.0388,0,0,2.0307,2.0311,0,0,0,0,0,0,0,0,1.9807,1.9825,1.9984,1.9988,1.9992,2.0098,2.0072,2.021,2.0125,2.0074,2.0118,2.0115,2.0214,2.0226,2.026,2.0395,2.0402,2.0308,2.0313,2.0316,2.0319,0,0,0,0,0,0,0,1.9798,1.9819,2.0025,1.9986,1.9991,1.9992,2.0008,2.0098,2.0157,2.0078,2.0079,2.0097,2.0215,2.0252,2.0264,2.0404,2.0307,2.0315,2.032,2.0324,2.0634,2.0637,0,0,0,0,0,0,1.9784,1.9811,2.002,2.003,1.9891,1.9999,2.0017,2.0067,2.0156,2.0167,2.0099,2.0097,2.0239,2.0254,2.0269,2.0401,2.0316,2.0324,2.0329,2.0631,2.0635,2.0638,0,0,0,0,0,0,1.9778,1.9803,2.0014,1.9921,1.9948,2.0007,2.0063,2.0071,2.0108,2.0172,2.0182,2.0126,2.0237,2.0257,2.0359,2.0406,2.0328,2.0336,2.0628,2.0632,2.0637,2.0664,0,0,0,0,0,0,1.977,1.9801,1.9843,1.9922,1.9953,2.0103,2.0066,2.0076,2.0123,2.0121,2.02,2.021,2.0236,2.0346,2.0367,2.0416,2.0343,2.0624,2.063,2.0635,2.066,2.067,2.0678,0,0,0,0,0,1.976,1.9844,1.9845,1.987,2.0007,2.0105,2.0123,2.0152,2.0127,2.0169,2.021,2.0208,2.0397,2.0356,2.038,2.0432,2.0621,2.0628,2.0635,2.0655,2.0668,2.0678,0,0,0,0,0,0,1.9768,1.9855,1.9857,1.9969,2.003,2.0106,2.016,2.0164,2.0232,2.0228,2.026,2.0278,2.0379,2.0416,2.0369,2.0541,2.0506,2.0518,2.0513,2.0525,2.0534,2.0523,2.035,0,0,0,0,0,1.9783,1.9857,1.9929,2.0021,2.0051,2.0101,2.0145,2.0162,2.0226,2.0251,2.03,2.0361,2.0434,2.0482,2.0553,2.0665,2.0682,2.0713,2.0722,2.0729,2.0739,2.0801,2.0816,2.0662,2.0661,2.0661,0,0,1.9815,1.9871,1.9916,2.0024,2.0073,2.0148,2.0122,2.0202,2.0258,2.0263,2.0362,2.04,2.047,2.0578,2.0628,2.0612,2.0786,2.0738,2.0743,2.075,2.081,2.0824,2.0837,2.0666,2.0665,2.0665,0,0,1.9911,1.9961,2.0044,2.0094,2.0169,2.0201,2.0221,2.0297,2.0322,2.0423,2.0428,2.0494,2.062,2.067,2.0712,2.0827,2.0827,2.0849,2.0897,2.0957,2.0969,2.098,2.1021,2.1035,2.0859,2.0859,2.0859,0,1.9941,2.0055,2.0086,2.0167,2.0214,2.0223,2.0306,2.0352,2.0446,2.0478,2.0459,2.0617,2.0665,2.0784,2.0813,2.0846,2.0869,2.084,2.0965,2.0976,2.0987,2.1026,2.1041,2.0861,2.0861,2.086,2.086,0,2.0087,2.0166,2.0224,2.0316,2.0369,2.0451,2.0493,2.0543,2.0556,2.059,2.0691,2.0749,2.0832,2.0862,2.0875,2.0983,2.0971,2.0958,2.0923,2.1003,2.1041,2.1056,2.0864,2.0863,2.0863,2.0862,0,0,2.0193,2.0301,2.0322,2.0364,2.0447,2.0508,2.059,2.0672,2.0714,2.0778,2.0847,2.0953,2.0942,2.099,2.1008,2.1061,2.1148,2.1042,2.1044,2.1059,2.1271,2.128,2.1297,2.1149,2.1152,2.1154,2.1265,0,2.0298,2.0445,2.0475,2.0601,2.0675,2.0684,2.0755,2.0813,2.0847,2.0913,2.095,2.1025,2.1004,2.1033,2.1085,2.1126,2.1191,2.1119,2.1212,2.1215,2.1194,2.1317,2.1327,2.1428,2.128,2.1282,2.1284,0,2.0441,2.051,2.0644,2.0718,2.075,2.0813,2.0891,2.0954,2.102,2.1041,2.1094,2.1106,2.1191,2.1152,2.1268,2.1218,2.1258,2.1284,2.1289,2.1299,2.1254,2.133,2.1462,2.1477,2.1307,2.1306,2.1304,0,2.0504,2.0631,2.0727,2.0763,2.0851,2.0896,2.0934,2.0998,2.1045,2.1112,2.1143,2.1219,2.1261,2.1319,2.1352,2.1321,2.1465,2.1429,2.1485,2.1484,2.1515,2.1512,2.1655,2.154,2.154,2.154,2.154,0,2.0619,2.07,2.0757,2.0817,2.0908,2.0941,2.103,2.1068,2.1125,2.1191,2.1203,2.1265,2.1304,2.1372,2.1397,2.149,2.1508,2.1527,2.1533,2.1526,2.1524,2.1553,2.1546,2.1544,2.1543,2.1542,2.1542,0,2.0705,2.0747,2.0853,2.0928,2.0949,2.1013,2.1077,2.1135,2.1168,2.1252,2.1273,2.1326,2.1406,2.1444,2.1543,2.156,2.1665,2.1666,2.1643,2.1645,2.1698,2.1692,2.1864,2.1888,2.1758,2.1759,2.176,0,2.0776,2.0839,2.0921,2.0967,2.1008,2.1081,2.113,2.1164,2.1214,2.1294,2.1342,2.1422,2.1489,2.1615,2.1662,2.1737,2.174,2.1795,2.1752,2.1743,2.1741,2.1737,2.1743,2.1803,2.1804,2.1805,2.1806,0,2.0896,2.0914,2.0984,2.1062,2.112,2.1183,2.1244,2.128,2.1325,2.138,2.1462,2.1513,2.1614,2.1694,2.1772,2.1811,2.1816,2.1819,2.1836,2.183,2.1814,2.1823,2.1664,2.1815,2.1814,2.1814,2.1813,2.1813,2.0977,2.1034,2.1101,2.1179,2.1229,2.1286,2.1344,2.1385,2.1455,2.154,2.1556,2.1643,2.1707,2.1813,2.1855,2.1923,2.191,2.1934,2.194,2.1946,2.1949,2.1803,2.1937,2.1937,2.1937,2.1936,2.1936,0,2.1099,2.1142,2.1214,2.13,2.1361,2.1361,2.1429,2.1479,2.1556,2.1616,2.1681,2.1775,2.1852,2.1905,2.1983,2.2027,2.2031,2.2046,2.2044,2.2052,2.1956,2.1933,2.2042,2.2042,2.2042,2.2042,2.2042,2.2042,2.1169,2.1265,2.129,2.1411,2.1453,2.154,2.1578,2.1631,2.1679,2.1783,2.1848,2.1882,2.1939,2.2021,2.2092,2.2105,2.2133,2.2149,2.2162,2.207,2.2059,2.2049,2.2028,2.2154,2.2155,2.2253,2.2254,2.2255]},{"header":{"parameterUnit":"m.s-1","parameterCategory":1,"la1":30.2991,"la2":30.254,"lo1":-89.0895,"lo2":-89.0444,"dy":0.0017,"dx":0.0017,"nx":28,"ny":28,"refTime":"2024-07-24T21:00:00:Z","depth":0,"parameterNumber":3,"parameterNumberName":"V-component_of_WINDS"},"data":[0,0,0,0,0,0,0,0,0,0,0,0,0,0,0,0,0,0,0,0,0,0,0,0,0,0,0,0,0,0,0,0,0,0,0,0,0,0,0,0,0,0,0,0,0,0,0,0,0,0,0,0,0,0,0,0,0,0,1.2859,1.2861,0,1.2974,1.2975,1.2976,1.299,1.2989,1.2988,1.2987,1.3107,1.3111,1.3116,0,0,0,0,0,0,0,0,0,0,0,0,0,1.2654,1.2658,1.2859,1.2861,1.2862,1.2974,1.2975,1.2977,1.2991,1.2989,1.2988,1.2987,1.3106,1.3111,1.3116,0,0,0,0,0,0,0,0,0,0,0,0,0,1.2753,1.2659,1.2859,1.2882,1.2886,1.2973,1.2975,1.2977,1.2991,1.2989,1.2988,1.2986,1.3104,1.311,1.3117,1.319,0,0,1.3136,1.3139,0,0,0,0,0,0,0,0,1.2748,1.2761,1.2877,1.2881,1.2885,1.2966,1.2947,1.3049,1.2991,1.2951,1.2987,1.2985,1.3062,1.3072,1.3097,1.3196,1.3201,1.3137,1.3141,1.3143,1.3145,0,0,0,0,0,0,0,1.2741,1.2756,1.2905,1.2879,1.2884,1.2888,1.29,1.2966,1.3015,1.2954,1.2956,1.2969,1.3063,1.3091,1.31,1.3202,1.3137,1.3142,1.3146,1.3149,1.3367,1.3368,0,0,0,0,0,0,1.2729,1.275,1.2901,1.2908,1.281,1.2893,1.2906,1.2942,1.3014,1.3023,1.297,1.2969,1.3081,1.3092,1.3104,1.3195,1.3143,1.3149,1.3153,1.3365,1.3367,1.3369,0,0,0,0,0,0,1.2725,1.2743,1.2896,1.283,1.2849,1.2898,1.2938,1.2945,1.2972,1.3026,1.3035,1.2989,1.308,1.3095,1.3168,1.32,1.3152,1.3158,1.3362,1.3365,1.3368,1.3378,0,0,0,0,0,0,1.2719,1.2741,1.2769,1.283,1.2853,1.2958,1.2939,1.2948,1.2983,1.2982,1.3046,1.3055,1.308,1.3159,1.3175,1.3208,1.3163,1.336,1.3364,1.3367,1.3375,1.3381,1.3386,0,0,0,0,0,1.2712,1.2768,1.2771,1.2789,1.2889,1.296,1.2973,1.3,1.2985,1.3014,1.3048,1.3053,1.3193,1.3166,1.3184,1.3219,1.3358,1.3363,1.3367,1.3373,1.338,1.3385,0,0,0,0,0,0,1.2711,1.2777,1.278,1.2858,1.2903,1.2962,1.3,1.3007,1.3058,1.3056,1.3087,1.3101,1.3173,1.3203,1.3172,1.3294,1.3274,1.3282,1.3272,1.3279,1.3284,1.3277,1.3168,0,0,0,0,0,1.272,1.2771,1.2826,1.2889,1.2912,1.2952,1.2984,1.3,1.3049,1.3068,1.3108,1.3156,1.321,1.3246,1.3299,1.3378,1.3393,1.3411,1.3416,1.342,1.3428,1.3472,1.3481,1.3384,1.3384,1.3384,0,0,1.2739,1.2781,1.2812,1.289,1.2927,1.2981,1.2968,1.3025,1.3066,1.3077,1.3149,1.3179,1.3234,1.3311,1.3346,1.3338,1.3458,1.3426,1.3429,1.3435,1.3478,1.3487,1.3495,1.3387,1.3386,1.3386,0,0,1.2802,1.2838,1.2895,1.2932,1.2988,1.3013,1.3027,1.3085,1.3105,1.3177,1.3187,1.3235,1.3328,1.3367,1.3399,1.3474,1.348,1.349,1.3519,1.3562,1.3569,1.3576,1.3604,1.3614,1.3497,1.3497,1.3497,0,1.282,1.29,1.2924,1.2981,1.3015,1.3026,1.3084,1.3119,1.3189,1.3213,1.3202,1.3319,1.3357,1.3442,1.346,1.3485,1.3502,1.3484,1.3566,1.3573,1.358,1.3607,1.3617,1.3498,1.3498,1.3497,1.3497,0,1.292,1.2975,1.3014,1.308,1.3119,1.3176,1.3209,1.3245,1.3256,1.3283,1.3356,1.3401,1.3464,1.3484,1.3497,1.3572,1.3565,1.3559,1.3541,1.359,1.3616,1.3626,1.3499,1.3499,1.3498,1.3498,0,0,1.299,1.3066,1.308,1.311,1.3171,1.3215,1.3271,1.3331,1.3362,1.3409,1.3459,1.3536,1.3531,1.3567,1.3584,1.3621,1.3678,1.3611,1.3612,1.3623,1.3764,1.3769,1.3781,1.3681,1.3683,1.3684,1.3759,0,1.3061,1.3163,1.3185,1.3273,1.3325,1.3334,1.3384,1.3426,1.3452,1.35,1.3528,1.3583,1.3571,1.3593,1.363,1.3663,1.3707,1.3657,1.3728,1.3731,1.3717,1.3794,1.3801,1.387,1.377,1.3771,1.3773,0,1.316,1.3208,1.3301,1.3353,1.3376,1.342,1.3476,1.3521,1.3569,1.3585,1.3624,1.3636,1.3696,1.3672,1.3755,1.3721,1.375,1.3771,1.3774,1.3784,1.3757,1.3808,1.3893,1.3904,1.3788,1.3787,1.3786,0,1.3204,1.3291,1.3358,1.3383,1.3446,1.3477,1.3504,1.3551,1.3585,1.3633,1.3656,1.3711,1.3742,1.3784,1.3811,1.379,1.3892,1.387,1.3909,1.3908,1.3933,1.3931,1.4025,1.3947,1.3947,1.3947,1.3947,0,1.3284,1.3341,1.3379,1.342,1.3484,1.3508,1.357,1.3598,1.3638,1.3686,1.3696,1.374,1.3772,1.382,1.3841,1.3907,1.392,1.3936,1.3941,1.3937,1.3935,1.3959,1.3956,1.395,1.3949,1.3948,1.3948,0,1.3346,1.3373,1.3447,1.3499,1.3513,1.3558,1.3603,1.3643,1.3667,1.3727,1.3742,1.3781,1.3839,1.3868,1.394,1.3954,1.4029,1.403,1.4013,1.4016,1.4053,1.405,1.4168,1.4185,1.4093,1.4094,1.4095,0,1.3396,1.344,1.3495,1.3527,1.3555,1.3606,1.364,1.3664,1.37,1.3756,1.379,1.3847,1.3895,1.3986,1.4021,1.4076,1.408,1.4117,1.4089,1.4082,1.4083,1.4081,1.4086,1.4124,1.4125,1.4125,1.4126,0,1.3484,1.3494,1.3543,1.3595,1.3635,1.3679,1.3721,1.3746,1.3777,1.3816,1.3874,1.3911,1.3983,1.404,1.4097,1.4126,1.4132,1.4134,1.4146,1.4143,1.4132,1.414,1.4029,1.4132,1.4131,1.4131,1.4131,1.413,1.3543,1.3582,1.3627,1.368,1.3714,1.3753,1.3793,1.3821,1.387,1.393,1.3941,1.4002,1.4048,1.4124,1.4154,1.4203,1.4196,1.4213,1.4218,1.4222,1.4225,1.4121,1.4213,1.4213,1.4213,1.4213,1.4213,0,1.3633,1.3661,1.371,1.3768,1.3809,1.3808,1.3854,1.389,1.3943,1.3984,1.403,1.4096,1.4151,1.4189,1.4244,1.4276,1.428,1.429,1.429,1.4296,1.4228,1.4213,1.4286,1.4286,1.4286,1.4286,1.4286,1.4286,1.3685,1.3751,1.3767,1.3849,1.3877,1.3937,1.3964,1.3999,1.4032,1.4105,1.415,1.4173,1.4213,1.4271,1.4321,1.4331,1.4352,1.4362,1.4372,1.4309,1.4301,1.4294,1.428,1.4366,1.4366,1.4437,1.4438,1.4438]}]]